N5SRF Weather Reports


Display with metric or nautical units.
time (UTC)temp
F
wind
direction
speed
MPH
gust
MPH
rain 1hr
in
rain 24hr
in
rain mn
in
humidity
%
barometer
mb
20260903000926 73 98 2.0 2.0 0.00 2.50 2.50 99 1016.8
20260903000421 73 81 5.0 6.0 0.07 2.50 2.50 99 1016.7
20260902235920 73 69 4.0 6.0 0.14 2.50 2.50 99 1017.0
20260902235415 74 162 2.0 2.0 0.54 2.49 2.49 99 1017.3
20260902234915 74 165 3.0 3.0 1.02 2.48 2.48 99 1017.4
20260902234409 75 72 1.0 2.0 0.90 2.44 2.44 99 1017.7
20260902233909 75 168 0.0 0.0 0.24 2.33 2.33 99 1017.6
20260902233403 75 184 0.0 0.0 0.17 2.29 2.29 99 1017.2
20260902232901 75 119 1.0 2.0 0.24 2.29 2.29 99 1017.2
20260902232357 75 107 6.0 8.0 0.24 2.27 2.27 99 1017.2
20260902231850 75 145 2.0 2.0 0.38 2.24 2.24 99 1017.1
20260902231345 75 105 3.0 3.0 0.47 2.23 2.23 99 1016.8
20260902230840 75 165 1.0 1.0 0.47 2.20 2.20 99 1017.2
20260902230340 74 229 1.0 1.0 0.28 2.16 2.16 99 1016.9
20260902225834 74 172 0.0 0.0 0.12 2.12 2.12 99 1017.1
20260902225330 74 151 1.0 2.0 0.19 2.11 2.11 99 1017.2
20260902224828 74 176 0.0 0.0 0.19 2.10 2.10 99 1016.9
20260902224323 74 85 1.0 2.0 0.17 2.09 2.09 99 1016.7
20260902223820 74 237 1.0 1.0 0.40 2.07 2.07 99 1016.8
20260902223319 74 165 1.0 2.0 0.54 2.06 2.06 99 1016.6
20260902222813 74 173 1.0 1.0 0.85 2.00 2.00 99 1016.7
20260902222306 73 329 4.0 6.0 0.66 1.97 1.97 99 1016.6
20260902213359 75 142 2.0 2.0 2.03 2.88 2.88 99 1018.0
20260902212857 75 142 2.0 2.0 2.03 2.88 2.88 99 1018.0
20260902212354 75 142 2.0 2.0 2.03 2.88 2.88 99 1018.0
20260902211850 75 336 4.0 6.0 1.68 2.65 2.65 99 1017.0
20260902211346 75 159 9.0 11.0 2.88 2.51 2.51 99 1015.8
20260902210841 75 148 8.0 10.0 3.12 2.34 2.34 99 1016.3
20260902210340 75 152 5.0 6.0 1.09 1.94 1.94 99 1017.2
20260902205839 75 218 1.0 1.0 1.51 1.81 1.81 99 1016.4
20260902205328 74 90 3.0 5.0 1.25 1.77 1.77 99 1016.5
20260902204824 74 26 7.0 8.0 4.32 2.40 2.40 99 1016.1
20260902204318 74 274 8.0 13.0 2.27 1.97 1.97 98 1017.4
20260902203814 74 312 5.0 6.0 0.90 1.67 1.67 97 1017.6
20260902203309 75 16 5.0 7.0 0.59 1.58 1.58 97 1017.6
20260902202808 75 170 0.0 0.0 0.31 1.51 1.51 97 1017.7
20260902202306 75 139 2.0 2.0 0.24 1.48 1.48 96 1017.6
20260902201801 76 201 4.0 5.0 0.24 1.46 1.46 94 1017.5
20260902201301 77 100 2.0 2.0 0.24 1.44 1.44 91 1017.5
20260902200756 81 316 7.0 9.0 0.12 1.42 1.42 87 1017.5
20260902200251 86 321 6.0 9.0 0.00 1.40 1.40 80 1018.0
20260902195746 87 269 3.0 5.0 0.00 1.40 1.40 83 1016.7
20260902195245 87 120 2.0 5.0 0.00 1.40 1.40 82 1016.5
20260902194740 87 194 4.0 7.0 0.00 1.40 1.40 82 1016.5
20260902194235 87 165 6.0 6.0 0.00 1.40 1.40 82 1016.3
20260902193731 87 110 2.0 5.0 0.00 1.40 1.40 82 1016.4
20260902193226 87 194 0.0 1.0 0.00 1.40 1.40 84 1016.6
20260902192725 87 163 3.0 5.0 0.00 1.40 1.40 84 1016.7
20260902192224 87 166 2.0 3.0 0.00 1.40 1.40 84 1016.9
20260902191718 87 186 1.0 2.0 0.00 1.40 1.40 85 1016.9
20260902191213 87 175 0.0 1.0 0.00 1.40 1.40 85 1016.9
20260902190709 86 180 2.0 2.0 0.00 1.40 1.40 85 1017.1
20260902190208 87 204 2.0 2.0 0.00 1.40 1.40 84 1017.2
20260902185704 87 141 3.0 3.0 0.00 1.40 1.40 85 1017.3
20260902185200 87 209 3.0 3.0 0.00 1.40 1.40 85 1017.2
20260902184655 87 181 1.0 2.0 0.00 1.40 1.40 85 1017.6
20260902184150 87 129 2.0 2.0 0.00 1.40 1.40 84 1017.4
20260902183646 86 177 0.0 0.0 0.00 1.40 1.40 87 1017.5
20260902183143 86 174 0.0 0.0 0.00 1.40 1.40 87 1017.3
20260902182638 85 188 4.0 5.0 0.00 1.40 1.40 86 1017.5
20260902182135 85 210 2.0 2.0 0.00 1.40 1.40 88 1017.6
20260902181631 84 135 2.0 3.0 0.00 1.40 1.40 90 1017.6
20260902181130 84 163 1.0 1.0 0.00 1.40 1.40 92 1017.8
20260902180624 84 155 1.0 2.0 0.00 1.40 1.40 94 1017.7
20260902180120 83 179 1.0 2.0 0.00 1.40 1.40 95 1017.9
20260902175615 82 190 3.0 5.0 0.00 1.40 1.40 96 1018.1
20260902175110 82 156 1.0 2.0 0.00 1.40 1.40 98 1018.1
20260902174607 81 182 1.0 1.0 0.00 1.40 1.40 99 1018.1
20260902174102 81 160 1.0 1.0 0.00 1.40 1.40 99 1018.2
20260902173601 80 164 3.0 3.0 0.00 1.40 1.40 99 1018.2
20260902173057 80 174 1.0 1.0 0.00 1.40 1.40 99 1018.2
20260902172550 80 152 3.0 3.0 0.00 1.40 1.40 99 1018.1
20260902172045 79 155 1.0 1.0 0.00 1.40 1.40 99 1018.2
20260902171536 79 171 2.0 3.0 0.00 1.40 1.40 99 1018.4
20260902171031 79 207 3.0 3.0 0.00 1.40 1.40 99 1018.5
20260902170526 78 66 0.0 1.0 0.00 1.40 1.40 99 1018.6
20260902170022 78 172 2.0 2.0 0.00 1.40 1.40 99 1018.6
20260902165521 77 122 4.0 5.0 0.00 1.40 1.40 99 1018.7
20260902165016 77 150 3.0 3.0 0.00 1.40 1.40 99 1019.0
20260902164511 77 153 4.0 6.0 0.00 1.40 1.40 99 1019.0
20260902164010 77 63 2.0 2.0 0.00 1.40 1.40 99 1018.9
20260902163506 76 162 2.0 3.0 0.00 1.40 1.40 99 1019.0
20260902163004 76 169 1.0 2.0 0.00 1.40 1.40 99 1019.4
20260902162458 75 153 2.0 2.0 0.00 1.40 1.40 99 1018.9
20260902161953 75 136 2.0 3.0 0.00 1.40 1.40 99 1019.1
20260902161448 77 159 3.0 6.0 0.00 1.40 1.40 99 1018.9
20260902160944 77 133 5.0 9.0 0.00 1.40 1.40 99 1019.2
20260902160439 77 220 7.0 10.0 0.00 1.40 1.40 99 1018.9
20260902155936 77 209 4.0 6.0 0.00 1.40 1.40 99 1018.7
20260902155433 77 229 5.0 6.0 0.00 1.40 1.40 99 1018.8
20260902154926 77 170 2.0 2.0 0.00 1.40 1.40 99 1018.8
20260902154422 77 184 3.0 3.0 0.00 1.40 1.40 99 1018.7
20260902153922 77 204 3.0 3.0 0.00 1.40 1.40 99 1018.6
20260902153420 77 193 0.0 1.0 0.00 1.40 1.40 99 1018.4
20260902152916 77 179 1.0 2.0 0.00 1.40 1.40 99 1018.5
20260902152412 77 136 2.0 3.0 0.00 1.40 1.40 99 1018.6
20260902151908 76 166 1.0 1.0 0.00 1.40 1.40 99 1018.5
20260902151403 76 187 2.0 5.0 0.00 1.40 1.40 99 1018.6
20260902150902 76 182 1.0 2.0 0.00 1.40 1.40 99 1018.2
20260902150359 76 175 1.0 2.0 0.00 1.40 1.40 99 1018.4
20260902145858 75 170 2.0 3.0 0.07 1.40 1.40 99 1018.5
20260902145354 75 177 0.0 1.0 0.07 1.40 1.40 99 1018.2
20260902144849 75 180 3.0 3.0 0.00 1.39 1.39 99 1018.4
20260902144345 75 185 0.0 0.0 0.00 1.39 1.39 99 1018.3
20260902143839 75 174 2.0 3.0 0.00 1.39 1.39 99 1018.4
20260902143333 75 182 1.0 2.0 0.00 1.39 1.39 99 1018.2
20260902142830 75 187 3.0 5.0 0.00 1.39 1.39 99 1018.4
20260902142325 75 83 3.0 3.0 0.00 1.39 1.39 99 1018.4
20260902141820 75 196 3.0 5.0 0.05 1.39 1.39 99 1018.3
20260902141316 75 344 1.0 2.0 0.05 1.39 1.39 99 1018.1
20260902140815 75 155 3.0 3.0 0.00 1.38 1.38 99 1018.1
20260902140310 75 159 3.0 6.0 0.07 1.38 1.38 99 1018.1
20260902135809 75 154 2.0 3.0 0.14 1.38 1.38 99 1018.0
20260902135307 75 208 2.0 2.0 0.12 1.37 1.37 99 1018.0
20260902134805 75 187 2.0 2.0 0.12 1.36 1.36 99 1018.0
20260902134301 74 162 0.0 1.0 0.07 1.35 1.35 99 1017.9
20260902133756 74 179 2.0 2.0 0.05 1.34 1.34 99 1018.0
20260902133255 75 173 1.0 1.0 0.05 1.34 1.34 99 1017.8
20260902132750 75 176 0.0 1.0 0.07 1.33 1.33 99 1018.0
20260902132246 75 181 1.0 2.0 0.24 1.33 1.33 99 1017.9
20260902131741 75 185 3.0 3.0 0.38 1.31 1.31 99 1017.7
20260902131238 75 178 1.0 1.0 0.35 1.28 1.28 99 1017.5
20260902130737 75 165 1.0 1.0 0.31 1.26 1.26 99 1017.6
20260902130233 75 175 0.0 1.0 0.19 1.22 1.22 99 1017.5
20260902125728 75 157 1.0 2.0 0.12 1.21 1.21 99 1017.3
20260902125224 75 173 3.0 3.0 0.00 1.19 1.19 99 1017.4
20260902124721 75 185 2.0 2.0 0.00 1.19 1.19 99 1017.1
20260902124216 75 206 1.0 2.0 0.00 1.19 1.19 99 1017.2
20260902123711 75 176 1.0 1.0 0.00 1.19 1.19 99 1017.0
20260902123207 75 145 1.0 1.0 0.00 1.19 1.19 99 1017.1
20260902122705 75 188 1.0 1.0 0.00 1.19 1.19 99 1016.8
20260902122202 75 148 2.0 2.0 0.00 1.19 1.19 99 1016.7
20260902121656 75 205 1.0 1.0 0.00 1.19 1.19 99 1016.6
20260902121150 75 178 1.0 2.0 0.00 1.19 1.19 99 1016.5
20260902120647 75 146 3.0 3.0 0.00 1.19 1.19 99 1016.4
20260902120143 75 252 1.0 1.0 0.00 1.19 1.19 99 1016.3
20260902115637 75 176 1.0 2.0 0.05 1.19 1.19 99 1016.4
20260902115133 75 215 1.0 1.0 0.05 1.19 1.19 99 1016.1
20260902114629 75 152 1.0 1.0 0.05 1.19 1.19 99 1016.2
20260902114129 75 180 0.0 1.0 0.00 1.18 1.18 99 1016.3
20260902113624 75 161 2.0 2.0 0.07 1.18 1.18 99 1016.1
20260902113119 75 189 3.0 5.0 0.12 1.18 1.18 99 1015.8
20260902112609 75 87 2.0 2.0 0.05 1.17 1.17 99 1016.1
20260902112106 75 118 1.0 1.0 0.07 1.16 1.16 99 1015.8
20260902111602 75 194 2.0 3.0 0.07 1.16 1.16 99 1015.6
20260902111057 75 179 2.0 3.0 0.05 1.15 1.15 99 1015.8
20260902110553 75 149 1.0 2.0 0.19 1.15 1.15 99 1015.8
20260902110048 75 199 2.0 2.0 0.38 1.14 1.14 99 1015.5
20260902105543 75 166 4.0 6.0 0.47 1.11 1.11 99 1015.3
20260902105043 75 176 5.0 7.0 0.71 1.08 1.08 99 1015.5
20260902104539 75 309 4.0 5.0 1.09 1.03 1.03 99 1015.4
20260902104038 75 162 3.0 3.0 1.25 0.98 0.98 99 1015.2
20260902103534 75 166 3.0 5.0 1.18 0.84 0.84 99 1015.0
20260902103029 75 67 1.0 2.0 1.13 0.76 0.76 99 1015.2
20260902102526 75 213 3.0 3.0 0.78 0.66 0.66 99 1015.0
20260902102022 75 179 2.0 3.0 0.35 0.57 0.57 99 1015.0
20260902101517 75 118 4.0 6.0 0.19 0.53 0.53 99 1015.2
20260902101016 74 216 2.0 5.0 0.14 0.51 0.51 99 1014.8
20260902100511 74 112 3.0 5.0 0.07 0.50 0.50 99 1014.5
20260902100006 74 178 4.0 5.0 0.00 0.49 0.49 99 1014.3
20260902095506 74 123 3.0 5.0 0.05 0.49 0.49 99 1014.1
20260902095005 74 163 6.0 8.0 0.05 0.49 0.49 99 1014.0
20260902094501 74 21 5.0 7.0 0.00 0.48 0.48 99 1014.4
20260902094001 74 241 7.0 9.0 0.07 0.48 0.48 99 1014.2
20260902093456 74 148 2.0 3.0 0.12 0.48 0.48 99 1014.0
20260902092955 74 193 5.0 6.0 0.17 0.47 0.47 99 1014.2
20260902092451 74 46 2.0 2.0 0.24 0.46 0.46 99 1014.1
20260902091951 74 152 3.0 5.0 0.24 0.45 0.45 99 1013.9
20260902091446 74 295 6.0 7.0 0.17 0.43 0.43 99 1013.9
20260902090943 74 209 7.0 13.0 0.17 0.41 0.41 99 1013.9
20260902090438 75 310 6.0 8.0 0.19 0.40 0.40 99 1013.8
20260902085936 75 230 3.0 5.0 0.07 0.38 0.38 99 1013.6
20260902085432 75 150 5.0 8.0 0.07 0.37 0.37 99 1013.7
20260902084927 75 209 5.0 8.0 0.12 0.37 0.37 99 1013.9
20260902084423 75 162 5.0 6.0 0.17 0.36 0.36 99 1013.7
20260902083918 75 178 4.0 7.0 0.19 0.35 0.35 99 1013.6
20260902083413 75 105 3.0 3.0 0.12 0.33 0.33 99 1013.6
20260902082908 75 79 3.0 5.0 0.17 0.32 0.32 99 1013.7
20260902082403 75 23 4.0 6.0 0.19 0.31 0.31 99 1013.6
20260902081900 75 262 4.0 7.0 0.19 0.29 0.29 99 1013.6
20260902081356 75 6 3.0 7.0 0.31 0.28 0.28 99 1013.6
20260902080856 75 150 3.0 5.0 0.54 0.26 0.26 99 1013.3
20260902080352 75 323 4.0 7.0 0.66 0.24 0.24 99 1013.3
20260902075851 76 214 5.0 8.0 0.42 0.17 0.17 99 1013.5
20260902075349 76 143 3.0 3.0 0.24 0.13 0.13 99 1013.5
20260902074849 76 120 1.0 2.0 0.12 0.10 0.10 99 1013.3
20260902074344 76 184 4.0 6.0 0.12 0.09 0.09 99 1013.3
20260902073839 76 232 7.0 9.0 0.12 0.08 0.08 99 1013.3
20260902073336 76 200 2.0 3.0 0.17 0.08 0.08 99 1013.4
20260902072831 77 56 3.0 5.0 0.12 0.06 0.06 99 1013.5
20260902072326 77 244 3.0 3.0 0.07 0.05 0.05 98 1013.1
20260902071823 77 114 2.0 3.0 0.05 0.04 0.04 98 1013.3
20260902071318 77 154 2.0 3.0 0.05 0.04 0.04 98 1013.3
20260902070814 77 332 3.0 3.0 0.07 0.03 0.03 97 1013.3
20260902070314 77 7 4.0 6.0 0.12 0.03 0.03 97 1013.2
20260902065813 77 350 2.0 3.0 0.05 0.02 0.02 96 1013.0
20260902065308 77 258 6.0 8.0 0.00 0.01 0.01 97 1013.3
20260902064803 77 323 6.0 8.0 0.00 0.01 0.01 97 1013.2
20260902064259 77 331 5.0 7.0 0.00 0.01 0.01 97 1013.1
20260902063755 77 281 6.0 7.0 0.00 0.01 0.01 97 1013.3
20260902063249 78 324 9.0 15.0 0.00 0.01 0.01 97 1013.5
20260902062749 78 347 10.0 14.0 0.07 0.01 0.01 97 1013.5
20260902062243 78 344 7.0 9.0 0.07 0.01 0.01 96 1013.9
20260902061742 78 324 9.0 10.0 0.00 0.00 0.00 96 1013.7
20260902061238 78 335 8.0 10.0 0.00 0.00 0.00 96 1013.8
20260902060735 78 286 7.0 9.0 0.00 0.00 0.00 96 1013.8
20260902060231 78 35 4.0 5.0 0.00 0.00 0.00 96 1014.0
20260902055726 78 335 11.0 16.0 0.00 0.46 0.46 97 1013.9
20260902055222 78 337 12.0 17.0 0.00 0.46 0.46 97 1014.1
20260902054717 78 333 9.0 13.0 0.00 0.46 0.46 97 1014.5
20260902054213 78 327 9.0 10.0 0.00 0.46 0.46 97 1014.3
20260902053708 78 346 6.0 8.0 0.00 0.46 0.46 97 1014.1
20260902053208 78 323 7.0 8.0 0.00 0.46 0.46 97 1014.3
20260902052707 78 56 7.0 8.0 0.00 0.46 0.46 97 1014.5
20260902052202 78 333 5.0 7.0 0.00 0.46 0.46 98 1014.7
20260902051701 78 307 8.0 9.0 0.00 0.46 0.46 98 1014.6
20260902051156 78 283 5.0 7.0 0.00 0.46 0.46 98 1014.7
20260902050651 78 303 6.0 7.0 0.00 0.46 0.46 98 1014.9
20260902050146 78 334 6.0 7.0 0.00 0.46 0.46 98 1014.8
20260902045641 78 326 5.0 6.0 0.00 0.46 0.46 98 1015.2
20260902045138 78 299 4.0 5.0 0.00 0.46 0.46 98 1015.1
20260902044637 78 315 5.0 9.0 0.07 0.46 0.46 98 1015.1
20260902044134 78 4 7.0 9.0 0.12 0.46 0.46 97 1015.2
20260902043628 78 333 5.0 7.0 0.12 0.45 0.45 97 1015.0
20260902043124 78 298 8.0 9.0 0.12 0.45 0.45 96 1015.3
20260902042623 78 4 7.0 8.0 0.00 0.43 0.43 96 1015.3
20260902042119 78 181 3.0 3.0 0.00 0.43 0.43 95 1015.4
20260902041618 78 341 4.0 5.0 0.00 0.43 0.43 95 1015.4
20260902041113 78 141 1.0 2.0 0.00 0.43 0.43 95 1015.5
20260902040607 78 322 7.0 8.0 0.00 0.43 0.43 95 1015.4
20260902035600 78 325 5.0 6.0 0.00 0.43 0.43 95 1015.8
20260902035056 78 316 7.0 8.0 0.00 0.43 0.43 95 1015.9
20260902034555 78 9 4.0 5.0 0.05 0.43 0.43 95 1015.9
20260902034055 78 357 4.0 5.0 0.05 0.43 0.43 95 1015.9
20260902033554 78 331 5.0 6.0 0.00 0.42 0.42 96 1016.1
20260902033049 77 282 6.0 7.0 0.00 0.42 0.42 96 1016.3
20260902032547 77 337 4.0 5.0 0.00 0.42 0.42 96 1016.4
20260902032043 77 355 4.0 5.0 0.00 0.42 0.42 96 1016.1
20260902031537 77 94 3.0 5.0 0.00 0.42 0.42 96 1016.3
20260902031034 77 327 3.0 5.0 0.00 0.42 0.42 96 1016.6
20260902030534 77 3 3.0 3.0 0.00 0.42 0.42 95 1016.8
20260902030034 77 327 5.0 7.0 0.07 0.42 0.42 95 1016.5
20260902025528 77 276 3.0 3.0 0.07 0.42 0.42 94 1016.7
20260902025024 78 305 3.0 3.0 0.00 0.41 0.41 93 1016.6
20260902024514 78 19 1.0 2.0 0.05 0.41 0.41 93 1016.7
20260902024013 79 33 4.0 5.0 0.05 0.41 0.41 91 1016.5
20260902023509 79 140 2.0 2.0 0.00 0.40 0.40 90 1016.6
20260902023004 80 229 3.0 3.0 0.00 0.40 0.40 88 1016.3
20260902022458 80 99 1.0 2.0 0.00 0.40 0.40 88 1016.6
20260902021954 80 29 7.0 9.0 0.00 0.40 0.40 87 1016.5
20260902021449 80 291 5.0 6.0 0.00 0.40 0.40 88 1016.2
20260902020944 80 355 4.0 5.0 0.00 0.40 0.40 88 1016.3
20260902020440 80 36 2.0 3.0 0.00 0.40 0.40 87 1016.7
20260902015936 80 5 1.0 2.0 0.00 0.40 0.40 87 1016.4
20260902015431 80 121 2.0 2.0 0.00 0.40 0.40 88 1016.6
20260902014926 80 146 3.0 7.0 0.00 0.40 0.40 89 1016.8
20260902014423 80 160 2.0 2.0 0.00 0.40 0.40 89 1016.5
20260902013922 80 114 1.0 1.0 0.00 0.40 0.40 89 1016.5
20260902013418 79 60 4.0 5.0 0.00 0.40 0.40 90 1016.4
20260902012913 79 103 2.0 2.0 0.00 0.40 0.40 91 1016.5
20260902012409 79 267 1.0 1.0 0.00 0.40 0.40 92 1016.5
20260902011904 79 166 0.0 1.0 0.00 0.40 0.40 92 1016.5
20260902011359 79 115 2.0 3.0 0.00 0.40 0.40 93 1016.3
20260902010853 78 70 1.0 1.0 0.00 0.40 0.40 94 1016.3
20260902010347 78 166 0.0 0.0 0.00 0.40 0.40 94 1016.3
20260902005846 78 134 0.0 1.0 0.00 0.40 0.40 94 1016.3
20260902005340 78 193 0.0 1.0 0.00 0.40 0.40 95 1016.5
20260902004836 79 156 0.0 1.0 0.00 0.40 0.40 95 1016.4
20260902004331 79 210 1.0 1.0 0.00 0.40 0.40 95 1016.3
20260902003826 79 216 1.0 2.0 0.00 0.40 0.40 95 1016.4
20260902003321 79 211 0.0 1.0 0.00 0.40 0.40 96 1016.4
20260902002817 79 300 1.0 2.0 0.00 0.40 0.40 96 1016.6
20260902002316 79 16 1.0 2.0 0.00 0.40 0.40 96 1016.7
20260902001812 79 200 1.0 1.0 0.00 0.40 0.40 96 1016.7